Stations météo

réclame
Mon MeteoGroup
Arkona, Allemagne (10091): Température de l'air & dewpoint: 10.07.2018 00:00:00 - 16.07.2018 00:00:00 (CEST)Arkona, Allemagne (10091): Température de l'air 5cm & Température de l'air -5cm: 10.07.2018 00:00:00 - 16.07.2018 00:00:00 (CEST)Arkona, Allemagne (10091): Température de l'air -20cm & Température de l'air -100cm: 10.07.2018 00:00:00 - 16.07.2018 00:00:00 (CEST)Arkona, Allemagne (10091): water temperature: 10.07.2018 00:00:00 - 16.07.2018 00:00:00 (CEST)Arkona, Allemagne (10091): Vitesse du vent & gusts: 10.07.2018 00:00:00 - 16.07.2018 00:00:00 (CEST)Arkona, Allemagne (10091): Direction du vent: 10.07.2018 00:00:00 - 16.07.2018 00:00:00 (CEST)Arkona, Allemagne (10091): reduced air pressure: 10.07.2018 00:00:00 - 16.07.2018 00:00:00 (CEST)Arkona, Allemagne (10091): visibility: 10.07.2018 00:00:00 - 16.07.2018 00:00:00 (CEST)Arkona, Allemagne (10091): Ensoleillement: 10.07.2018 00:00:00 - 16.07.2018 00:00:00 (CEST)Arkona, Allemagne (10091): Quantités de précipitations: 10.07.2018 00:00:00 - 16.07.2018 00:00:00 (CEST)
Date & Time tt [°C] td [°C] tt 5cm [°C] tt -5cm [°C] tt -20cm [°C] tt -100cm [°C] tw [°C] ff [km/h] ff [knt] fx [km/h] fx [knt] dd ppp [hPa] vv [km] sd [min] rr [mm]
16.07.2018 00:00:00 18,2 16,3 16,8 21,1 23,7 18,2 19,4 16 9 23 12 WNW 1016,5 18 0 0,0
15.07.2018 23:00:00 17,5 15,4 16,2 21,9 24,1 18,2 19,5 18 10 22 12 W 1016,4 21 0 0,0
15.07.2018 22:00:00 17,5 15,6 16,5 23,1 24,5 18,2 19,5 18 10 22 12 W 1016,3 19 23 0,0
15.07.2018 21:00:00 18,7 14,8 18,0 24,9 24,8 18,2 19,5 16 9 24 13 W 1016,1 26 46 0,0
15.07.2018 20:00:00 19,1 14,9 20,6 27,2 24,9 18,2 19,5 19 10 26 14 W 1016,2 24 60 0,0
15.07.2018 19:00:00 19,6 14,6 22,3 29,1 24,7 18,2 19,5 18 10 29 16 W 1016,4 17 60 0,0
15.07.2018 18:00:00 19,6 14,0 23,3 30,4 24,4 18,2 19,4 21 11 29 16 W 1016,8 16 60 0,0
15.07.2018 17:00:00 19,8 14,1 23,6 31,3 23,9 18,2 19,4 18 10 29 15 W 1017,1 15 60 0,0
15.07.2018 16:00:00 19,1 14,0 24,7 31,9 23,2 18,2 19,3 22 12 29 16 W 1017,4 16 60 0,0
15.07.2018 15:00:00 19,7 13,6 25,8 30,9 22,5 18,2 19,3 17 9 24 13 WNW 1017,8 16 60 0,0
15.07.2018 14:00:00 19,8 12,6 25,0 27,6 22,1 18,2 19,2 14 8 25 13 NW 1017,9 18 18 0,0
15.07.2018 13:00:00 18,5 12,9 21,6 25,7 21,8 18,2 19,1 15 8 23 12 WNW 1018,2 28 1 0,0
15.07.2018 12:00:00 18,3 13,6 21,7 24,4 21,5 18,2 19,1 14 8 23 12 WNW 1018,2 22 0 0,0
15.07.2018 11:00:00 18,0 13,7 20,8 24,5 21,1 18,2 19,1 11 6 24 13 WNW 1018,2 30 8 0,0
15.07.2018 10:00:00 18,5 13,8 22,9 24,6 20,8 18,2 19,1 13 7 23 13 NW 1017,9 43 55 0,0
15.07.2018 09:00:00 17,8 13,9 19,6 21,8 20,6 18,2 19,1 16 9 25 13 NW 1017,7 31 50 0,0
15.07.2018 08:00:00 17,7 14,0 18,9 20,0 20,6 18,2 19,1 17 9 26 14 NW 1017,3 46 53 0,0
15.07.2018 07:00:00 17,4 14,3 17,6 18,4 20,7 18,2 19,0 16 9 26 14 NW 1017,3 32 54 0,0
15.07.2018 06:00:00 17,3 14,5 16,3 17,8 21,0 18,2 19,1 17 9 26 14 NNW 1017,0 38 38 0,0
15.07.2018 05:00:00 17,0 13,4 15,4 17,9 21,2 18,2 19,1 15 8 26 14 NW 1016,9 39 0 0,0
15.07.2018 04:00:00 17,2 13,4 15,7 18,1 21,5 18,2 19,1 17 9 26 14 WNW 1016,8 39 0 0,0
15.07.2018 03:00:00 17,2 12,6 15,3 18,3 21,9 18,2 19,1 13 7 24 13 WNW 1016,9 46 0 0,0
15.07.2018 02:00:00 17,0 13,4 15,5 18,5 22,2 18,2 - 17 9 26 14 WNW 1017,1 43 0 0,0
15.07.2018 01:00:00 14,2 11,8 13,0 19,0 22,6 18,1 - 19 10 22 12 W 1017,4 39 0 0,0
15.07.2018 00:00:00 14,5 11,9 13,1 19,7 23,0 18,1 - 16 9 23 12 WSW 1017,6 32 0 0,0
14.07.2018 23:00:00 16,8 11,3 15,2 20,4 23,5 18,1 - 16 8 26 14 W 1017,6 57 0 0,0
14.07.2018 22:00:00 16,4 11,1 15,4 21,5 23,9 18,1 - 20 11 32 18 W 1017,7 70 28 0,0
14.07.2018 21:00:00 17,0 10,9 16,3 23,0 24,2 18,1 - 23 13 38 21 W 1017,4 60 47 0,0
14.07.2018 20:00:00 17,5 11,0 18,7 25,2 24,3 18,1 - 28 15 42 23 W 1017,4 27 60 0,0
14.07.2018 19:00:00 17,7 10,7 19,7 26,9 24,2 18,1 - 28 15 41 22 W 1017,7 24 60 0,0
14.07.2018 18:00:00 18,0 10,9 21,1 28,0 24,0 18,1 - 29 16 46 25 W 1017,6 19 60 0,0
14.07.2018 17:00:00 18,4 11,0 21,3 28,6 23,6 18,1 - 30 16 44 24 W 1017,9 13 60 0,0
14.07.2018 16:00:00 18,2 11,8 23,2 28,3 23,3 18,1 - 31 17 43 23 W 1018,2 16 58 0,0
14.07.2018 15:00:00 17,7 11,5 21,7 26,6 23,0 18,1 - 30 16 40 22 W 1018,6 22 11 0,0
14.07.2018 14:00:00 17,5 11,4 20,7 25,9 22,8 18,0 - 24 13 40 22 W 1018,9 26 1 0,0
14.07.2018 13:00:00 16,9 11,8 20,0 25,4 22,6 18,0 - 26 14 38 21 W 1019,0 40 2 0,0
14.07.2018 12:00:00 16,4 11,4 19,6 24,7 22,3 18,0 - 25 13 39 21 W 1019,0 39 0 0,0
14.07.2018 11:00:00 16,7 12,1 20,1 24,0 22,2 18,0 - 26 14 38 21 W 1018,8 29 4 0,0
14.07.2018 10:00:00 16,7 12,2 19,5 22,3 22,2 18,0 - 20 11 37 20 WNW 1018,5 32 3 0,0
14.07.2018 09:00:00 16,0 13,0 17,2 21,2 22,2 18,0 - 22 12 36 19 WNW 1018,3 20 0 0,0
14.07.2018 08:00:00 15,9 12,8 17,1 20,8 22,4 18,0 - 25 13 38 21 WNW 1018,0 26 8 0,0
14.07.2018 07:00:00 16,4 13,7 17,4 20,2 22,7 18,0 - 24 13 38 21 WNW 1017,7 21 3 0,0
14.07.2018 06:00:00 16,6 14,0 16,1 20,0 23,0 18,0 - 26 14 40 22 WNW 1017,6 20 0 0,0
14.07.2018 05:00:00 17,4 14,7 16,5 20,4 23,3 18,0 - 25 14 40 21 NW 1017,1 21 0 0,0
14.07.2018 04:00:00 18,3 15,6 17,3 20,9 23,7 18,0 - 25 13 38 21 NW 1016,8 23 0 0,0
14.07.2018 03:00:00 18,7 16,1 17,8 21,4 24,1 17,9 - 22 12 33 18 NW 1016,8 21 0 0,0
14.07.2018 02:00:00 19,1 15,8 18,2 21,9 24,5 17,9 - 22 12 35 19 NW 1016,7 24 0 0,0
14.07.2018 01:00:00 19,7 15,9 18,5 22,6 24,9 17,9 - 20 11 34 19 WNW 1016,6 29 0 0,0
14.07.2018 00:00:00 19,7 17,0 18,8 23,4 25,3 17,9 - 18 10 31 17 WNW 1016,6 25 0 0,0
13.07.2018 23:00:00 20,4 15,4 19,6 24,1 25,8 17,9 - 26 14 34 18 W 1016,3 33 0 0,0
13.07.2018 22:00:00 21,1 14,9 20,1 25,3 26,3 17,9 - 24 13 38 20 W 1016,2 35 4 0,0
13.07.2018 21:00:00 21,2 15,3 20,6 27,0 26,6 17,9 - 21 11 36 19 W 1016,1 35 36 0,0
13.07.2018 20:00:00 22,6 14,0 23,6 29,4 26,8 17,9 - 29 16 42 23 W 1015,4 30 60 0,0
13.07.2018 19:00:00 23,3 13,8 25,4 31,5 26,8 17,9 - 23 13 34 19 W 1015,5 35 60 0,0
13.07.2018 18:00:00 23,9 14,3 26,9 33,0 26,5 17,9 - 29 16 40 21 W 1015,8 18 60 0,0
13.07.2018 17:00:00 24,4 14,9 28,9 34,5 26,1 17,9 - 25 14 34 18 W 1016,3 15 60 0,0
13.07.2018 16:00:00 22,9 16,5 28,3 34,8 25,5 17,9 - 21 11 31 17 W 1016,3 16 60 0,0
13.07.2018 15:00:00 22,1 16,3 28,0 34,9 24,8 17,9 - 19 10 31 17 W 1016,2 28 60 0,0
13.07.2018 14:00:00 21,3 16,4 28,0 34,4 24,0 17,9 - 15 8 23 12 WNW 1016,3 13 60 0,0
13.07.2018 13:00:00 20,7 17,1 27,4 33,0 23,2 17,9 - 11 6 19 10 WNW 1016,5 14 60 0,0
13.07.2018 12:00:00 20,9 17,1 26,4 30,9 22,5 17,9 - 12 6 21 11 WNW 1016,3 14 60 0,0
13.07.2018 11:00:00 20,4 16,8 24,7 29,0 21,8 17,9 - 13 7 19 10 WNW 1015,8 20 60 0,0
13.07.2018 10:00:00 20,6 17,3 25,6 26,7 21,3 17,9 - 11 6 19 11 WNW 1015,7 20 60 0,0
13.07.2018 09:00:00 19,9 17,3 22,9 23,7 21,1 17,9 - 13 7 19 10 NW 1015,4 19 60 0,0
13.07.2018 08:00:00 19,3 17,5 20,4 20,6 21,2 17,9 - 10 5 21 11 NW 1015,2 23 53 0,0
13.07.2018 07:00:00 18,2 17,2 17,7 19,3 21,4 17,9 - 13 7 20 11 WNW 1014,9 13 34 0,0
13.07.2018 06:00:00 18,1 16,9 17,1 19,2 21,6 17,9 - 13 7 18 10 NW 1014,4 17 1 0,0
13.07.2018 05:00:00 18,3 16,3 16,9 19,4 21,9 17,9 - 13 7 17 9 NW 1014,2 17 0 0,0
13.07.2018 04:00:00 18,1 15,2 16,5 19,7 22,3 17,9 - 13 7 17 9 WNW 1014,3 31 0 0,0
13.07.2018 03:00:00 17,3 14,6 16,4 20,0 22,6 17,9 - 16 9 22 12 W 1014,5 28 0 0,0
13.07.2018 02:00:00 17,2 13,6 16,0 20,4 23,0 17,9 - 17 9 22 12 W 1014,5 28 0 0,0
13.07.2018 01:00:00 16,9 13,6 15,5 21,1 23,4 17,9 - 20 11 22 12 W 1014,6 28 0 0,0
13.07.2018 00:00:00 17,1 14,2 16,0 22,0 23,9 17,9 - 15 8 16 9 WSW 1015,0 25 0 0,0
12.07.2018 23:00:00 18,4 15,7 17,2 22,9 24,3 17,9 - 13 7 19 10 W 1015,0 24 0 0,0
12.07.2018 22:00:00 18,3 16,7 17,4 24,3 24,6 17,9 - 13 7 19 10 WNW 1014,9 18 0 0,0
12.07.2018 21:00:00 18,5 16,7 18,2 26,3 24,8 17,9 - 8 4 15 8 NW 1014,8 14 25 0,0
12.07.2018 20:00:00 19,3 16,2 22,6 29,1 24,7 17,9 - 7 4 14 8 NNW 1014,4 17 60 0,0
12.07.2018 19:00:00 20,2 16,4 24,3 31,1 24,4 17,9 - 6 4 15 8 N 1014,1 20 60 0,0
12.07.2018 18:00:00 20,9 16,1 26,0 32,2 23,9 17,9 - 9 5 15 8 N 1014,2 21 60 0,0
12.07.2018 17:00:00 20,4 15,5 25,0 32,3 23,2 17,9 - 14 8 24 13 NNE 1014,1 24 59 0,0
12.07.2018 16:00:00 20,7 15,8 27,5 31,1 22,6 17,9 - 19 10 29 16 NNE 1014,3 23 60 0,0
12.07.2018 15:00:00 20,2 15,7 26,8 28,7 22,0 17,9 - 22 12 37 20 NNE 1014,3 19 23 0,0
12.07.2018 14:00:00 19,1 14,9 22,2 28,6 21,3 17,9 - 20 11 36 20 NNE 1014,2 20 29 0,0
12.07.2018 13:00:00 20,1 15,4 26,2 28,0 20,7 17,9 - 26 14 37 20 NNE 1014,2 18 46 0,0
12.07.2018 12:00:00 19,3 15,3 23,7 23,5 20,4 17,9 - 22 12 36 19 NNE 1014,1 25 10 0,0
12.07.2018 11:00:00 18,5 15,7 21,3 22,3 20,2 17,9 - 22 12 37 20 NNE 1014,1 18 3 0,0
12.07.2018 10:00:00 18,1 15,5 19,8 20,6 20,1 17,9 - 22 12 38 21 NE 1014,2 22 0 0,0
12.07.2018 09:00:00 17,8 14,2 18,4 19,7 20,1 17,9 - 25 14 40 22 NNE 1014,0 39 0 0,0
12.07.2018 08:00:00 17,7 15,2 17,4 19,2 20,2 18,0 - 28 15 41 22 NNE 1013,6 33 7 0,0
12.07.2018 07:00:00 17,9 15,3 17,8 18,9 20,4 18,0 - 23 12 36 19 NE 1013,9 37 17 0,0
12.07.2018 06:00:00 17,5 15,2 16,6 18,5 20,6 18,0 - 25 14 44 24 NNE 1013,8 35 1 0,0
12.07.2018 05:00:00 17,2 15,2 16,1 18,8 20,8 18,0 - 29 16 43 23 NNE 1013,9 30 0 0,0
12.07.2018 04:00:00 17,7 16,1 17,0 19,4 21,0 18,0 - 25 13 37 20 NE 1014,1 25 0 0,0
12.07.2018 03:00:00 17,7 16,7 17,3 19,7 21,2 18,0 - 18 10 29 16 NNE 1014,8 14 0 0,0
12.07.2018 02:00:00 17,9 16,9 17,5 20,0 21,4 18,0 - 14 8 23 13 ENE 1014,9 14 0 0,0
12.07.2018 01:00:00 17,9 17,0 17,3 20,3 21,6 18,0 - 14 8 23 13 ENE 1015,2 12 0 0,0
12.07.2018 00:00:00 17,9 16,8 17,5 20,7 21,8 18,0 - 13 7 23 12 NE 1015,4 14 0 0,0
11.07.2018 23:00:00 18,0 17,0 17,6 21,2 22,0 18,0 - 14 8 22 12 NE 1015,5 12 0 0,0
11.07.2018 22:00:00 18,1 17,0 17,8 21,8 22,2 18,0 - 15 8 26 14 ENE 1015,5 13 0 0,0
11.07.2018 21:00:00 18,1 17,1 18,4 22,6 22,4 18,0 - 13 7 27 14 ENE 1015,4 9 0 0,0
11.07.2018 20:00:00 18,4 17,2 19,0 23,5 22,5 18,0 - 13 7 25 14 ENE 1015,6 11 0 0,0
11.07.2018 19:00:00 18,5 16,9 20,0 24,7 22,4 18,0 - 13 7 26 14 ENE 1015,2 13 0 0,0
11.07.2018 18:00:00 18,7 17,2 20,4 25,7 22,2 18,0 - 14 8 33 18 ENE 1015,3 12 0 0,0
11.07.2018 17:00:00 19,2 16,5 22,4 28,0 21,7 18,1 - 26 14 37 20 E 1015,3 19 47 0,0
11.07.2018 16:00:00 19,6 16,9 26,2 25,9 21,5 18,1 - 18 10 22 12 ENE 1015,4 12 21 0,0
11.07.2018 15:00:00 18,6 17,0 19,9 24,1 21,3 18,1 - 14 8 26 14 ENE 1015,8 10 0 0,0
11.07.2018 14:00:00 18,3 16,6 19,7 25,0 21,0 18,1 - 17 9 30 16 ENE 1015,7 13 1 0,0
11.07.2018 13:00:00 18,4 16,3 21,1 25,1 20,5 18,1 - 21 12 31 17 NE 1015,7 14 3 0,0
11.07.2018 12:00:00 19,2 15,8 23,9 24,4 20,2 18,1 - 20 11 34 18 ENE 1015,9 21 21 0,0
11.07.2018 11:00:00 18,4 15,8 21,4 22,2 19,9 18,1 17,9 23 13 39 21 ENE 1016,0 25 0 0,0
11.07.2018 10:00:00 18,4 16,1 20,8 21,1 19,8 18,1 17,9 24 13 40 22 ENE 1015,9 28 0 0,0
11.07.2018 09:00:00 17,9 15,9 19,0 19,4 19,8 18,1 17,9 26 14 45 24 ENE 1015,8 28 2 0,0
11.07.2018 08:00:00 17,6 16,0 17,4 18,9 19,8 18,1 17,9 29 16 49 27 ENE 1015,7 22 0 0,0
11.07.2018 07:00:00 17,7 15,9 17,9 18,7 19,9 18,1 18,0 35 19 50 27 ENE 1015,4 23 0 0,0
11.07.2018 06:00:00 17,6 16,1 17,4 18,4 20,0 18,1 18,1 36 20 50 27 ENE 1015,4 20 0 0,0
11.07.2018 05:00:00 17,5 15,8 17,1 18,4 20,1 18,1 18,1 39 21 52 28 ENE 1015,5 21 0 0,0
11.07.2018 04:00:00 17,5 16,0 17,0 18,4 20,3 18,1 18,1 27 15 41 22 ENE 1016,0 23 0 0,0
11.07.2018 03:00:00 17,6 15,5 16,6 18,6 20,5 18,1 18,1 27 14 42 23 ENE 1016,5 34 0 0,0
11.07.2018 02:00:00 17,6 16,2 17,1 18,9 20,7 18,1 18,2 27 15 42 23 ENE 1016,6 18 0 0,0
11.07.2018 01:00:00 17,7 16,2 17,2 19,0 20,9 18,1 18,2 22 12 37 20 ENE 1016,9 21 0 0,0
11.07.2018 00:00:00 17,8 15,9 17,2 19,4 21,1 18,2 18,2 26 14 44 24 ENE 1017,2 28 0 0,0
10.07.2018 23:00:00 17,7 16,1 16,9 19,9 21,3 18,2 18,2 31 17 48 26 ENE 1017,1 23 0 0,1
10.07.2018 22:00:00 17,8 16,2 17,5 20,7 21,5 18,2 18,3 36 19 50 27 ENE 1017,1 18 0 0,0
10.07.2018 21:00:00 17,9 16,0 18,1 21,5 21,6 18,2 18,3 32 18 51 27 ENE 1017,2 22 0 0,0
10.07.2018 20:00:00 18,0 16,1 18,8 22,3 21,6 18,2 18,3 29 16 45 25 ENE 1016,9 21 0 0,0
10.07.2018 19:00:00 18,1 15,8 19,3 22,9 21,5 18,2 18,3 27 15 50 27 ENE 1016,7 21 0 0,0
10.07.2018 18:00:00 18,2 15,4 19,4 23,9 21,4 18,2 18,3 34 18 49 27 ENE 1016,5 24 13 0,0
10.07.2018 17:00:00 17,7 15,5 19,1 23,2 21,2 18,2 18,3 29 16 43 23 NE 1016,8 23 0 0,0
10.07.2018 16:00:00 17,8 14,1 20,8 23,7 21,0 18,2 18,3 29 16 45 24 ENE 1016,8 24 5 0,0
10.07.2018 15:00:00 17,3 13,2 20,1 22,9 20,8 18,2 18,3 25 13 35 19 NE 1017,2 32 0 0,0
10.07.2018 14:00:00 16,9 12,8 19,4 23,1 20,6 18,2 18,2 15 8 31 17 NNE 1017,5 32 0 0,0
10.07.2018 13:00:00 16,9 12,1 19,4 22,2 20,5 18,2 18,2 18 10 32 17 ENE 1017,3 34 0 0,0
10.07.2018 12:00:00 16,5 10,4 18,3 21,8 20,3 18,2 18,3 15 8 26 14 ENE 1017,3 40 0 0,0
10.07.2018 11:00:00 16,2 10,3 17,6 21,2 20,1 18,2 18,3 6 4 23 12 ENE 1017,4 45 1 0,0
10.07.2018 10:00:00 16,6 10,7 19,0 21,1 19,9 18,2 18,2 11 6 20 11 ENE 1016,8 39 0 0,0
10.07.2018 09:00:00 16,4 10,2 18,1 20,1 19,8 18,2 18,2 5 3 11 6 ENE 1016,7 37 0 0,0
10.07.2018 08:00:00 15,1 9,6 16,5 18,4 19,9 18,2 18,2 3 2 11 6 SW 1016,3 37 0 0,0
10.07.2018 07:00:00 13,8 9,6 13,9 17,6 20,0 18,2 18,2 10 5 17 9 SW 1015,9 32 0 0,0
10.07.2018 06:00:00 13,6 10,2 13,4 17,4 20,2 18,2 18,2 12 7 19 10 SW 1015,7 31 0 0,0
10.07.2018 05:00:00 13,6 9,9 13,3 17,5 20,4 18,2 18,2 15 8 19 10 SSW 1015,4 37 0 0,0
10.07.2018 04:00:00 13,5 10,0 13,0 17,8 20,7 18,2 18,2 11 6 18 10 SW 1015,2 23 0 0,0
10.07.2018 03:00:00 13,7 9,0 13,2 17,9 20,9 18,2 18,2 10 6 17 9 SW 1015,4 34 0 0,0
10.07.2018 02:00:00 13,8 8,5 13,6 18,2 21,2 18,2 18,3 16 9 25 14 WSW 1015,2 40 0 0,0
10.07.2018 01:00:00 14,4 9,0 14,1 18,5 21,4 18,2 18,3 19 11 26 14 WSW 1015,0 40 0 0,0
10.07.2018 00:00:00 14,5 9,5 14,0 18,9 21,7 18,2 18,3 18 10 34 18 WSW 1015,1 33 0 0,0

tt = Température de l'air
td = dewpoint
tt 5cm = Température de l'air 5cm
tt -5cm = Température de l'air -5cm
tt -20cm = Température de l'air -20cm
tt -100cm = Température de l'air -100cm
tw = water temperature
ff = Vitesse du vent
fx = gusts
dd = Direction du vent
ppp = reduced air pressure
vv = visibility
sd = Ensoleillement
rr = Quantités de précipitations

stations d'obs. à proximité